User: anonymous   Login
Location: Unspecified
(0.0000°N, 0.0000°E)
Time: 22:36:14
(UTC+00:00)
Language:

Gonets-D1 - Orbit

View from above orbital plane
View from above orbital plane
View from above satellite
View from above satellite

Ground track
Ground track

The orbit data is extracted from the following two-line orbital elements,

1 23788U 96009B   24151.26237948  .00000033  00000-0  12615-3 0  9990
2 23788  82.5719  63.0480 0006641 336.2558  23.8226 12.63185306303871
Epoch (UTC): 30 May 2024 06:17:49
Eccentricity: 0.0006641
inclination: 82.5719°
perigee height: 1404 km
apogee height: 1415 km
right ascension of ascending node: 63.0480°
argument of perigee: 336.2558°
revolutions per day: 12.63185306
mean anomaly at epoch: 23.8226°
orbit number at epoch: 30387

The dashed part of the orbit path shows where the satellite is in the earth's shadow,  

DLR